GSAT0201 (GALILEO 5)

Last updated on Fri Oct 11 2024 00:02:28 GMT+0000 (Coordinated Universal Time)

1 40128U 14050A 24283.89254242 -.00000010 00000+0 00000+0 0 9990 2 40128 49.5419 298.4460 1614007 155.7361 212.8190 1.85519498 66903
UTC large
Height (km)
Speed (km/s)
/
Latitude / Longitude
Inclination (degrees)
Orbital Period (minutes)
Azimuth
Elevation
Range (km)
Doppler Factor

Next 0 passes for location: London (51.5072 / 0.1276)

Sorry there are no passes over London.